Columbia Owens, SC

3:19 PM EST on December 12, 2017 (GMT -0500)
Columbia Owens Downtown

Weather History for KCUB - February, 2013

Change the Weather History Date:

Saturday, February 23, 2013

  Actual Average Record
Temperature  
Mean Temperature 43 °F 51 °F  
Max Temperature 47 °F 62 °F 81 °F (2012)
Min Temperature 39 °F 40 °F 27 °F (2009)
Degree Days  
Heating Degree Days 22 14  
Month to date heating degree days 393 369  
Since 1 July heating degree days 1583 1861  
Cooling Degree Days 0 0  
Month to date cooling degree days 0 0  
Year to date cooling degree days 24 1  
Moisture  
Dew Point 42 °F    
Average Humidity 95    
Maximum Humidity 100    
Minimum Humidity 92    
Precipitation  
Precipitation 0.79 in 0.14 in 0.79 in (2013)
Month to date precipitation 4.01 2.92  
Year to date precipitation 5.43 6.55  
Sea Level Pressure  
Sea Level Pressure 29.95 in    
Wind  
Wind Speed 1 mph (ENE)    
Max Wind Speed 10 mph    
Max Gust Speed 15 mph    
Visibility 4 miles    
Events Rain    
T = Trace of Precipitation, MM = Missing Value Source: NWS Daily Summary

Daily Weather History Graph

Daily Weather History Graph

Search for Another Location

Airport or City:

Trip Planner

Search our weather history database for the weather conditions in past years. The results will help you decide how hot, cold, wet, or windy it might be!

Date:

Astronomy

Feb. 23, 2013 Rise Set
Actual Time 6:59 AM EST 6:15 PM EST
Civil Twilight 6:34 AM EST 6:40 PM EST
Nautical Twilight 6:05 AM EST 7:09 PM EST
Astronomical Twilight 5:36 AM EST 7:38 PM EST
Moon 4:27 PM EST (2/23) 5:17 AM EST (2/23)
Length of Visible Light 12h 06m
Length of Day
11h 15m
Waxing Gibbous, 95% of the Moon is Illuminated
Feb 23
Waxing Gibbous
Feb 25
Full
Mar 4
Last Quarter
Mar 11
New
Mar 19
First Quarter

Hourly Weather History & Observations

Time (EST) Temp. Windchill Dew Point Humidity Pressure Visibility Wind Dir Wind Speed Gust Speed Precip Events Conditions
12:12 AM 39.2 °F - 37.4 °F 93% 30.11 in 4.0 mi Calm Calm - N/A   Overcast
12:53 AM 39.9 °F - 37.9 °F 93% 30.12 in 5.0 mi Calm Calm - N/A   Overcast
1:53 AM 39.9 °F 37.8 °F 37.9 °F 93% 30.09 in 4.0 mi North 3.5 mph - 0.00 in Rain Light Rain
2:35 AM 39.2 °F - 37.4 °F 93% 30.06 in 8.0 mi Calm Calm - 0.00 in Rain Light Rain
2:53 AM 39.9 °F - 37.9 °F 93% 30.04 in 10.0 mi Calm Calm - 0.01 in Rain Light Rain
3:53 AM 39.9 °F 37.8 °F 37.9 °F 93% 30.01 in 4.0 mi ENE 3.5 mph - 0.03 in Rain Rain
4:18 AM 39.2 °F 37.0 °F 37.4 °F 93% 30.01 in 2.0 mi Variable 3.5 mph - 0.08 in Rain Heavy Rain
4:29 AM 39.2 °F - 37.4 °F 93% 30.00 in 5.0 mi Calm Calm - 0.10 in Rain Light Rain
4:53 AM 39.9 °F 37.8 °F 37.9 °F 93% 30.00 in 8.0 mi Variable 3.5 mph - 0.12 in Rain Light Rain
5:53 AM 39.9 °F 37.8 °F 37.9 °F 93% 29.98 in 10.0 mi Variable 3.5 mph - 0.02 in Rain Light Rain
6:50 AM 39.2 °F 35.9 °F 37.4 °F 93% 29.97 in 5.0 mi East 4.6 mph - 0.11 in Rain Rain
7:06 AM 39.2 °F - 39.2 °F 100% 29.99 in 1.8 mi Calm Calm - 0.11 in Rain Heavy Rain
7:19 AM 39.2 °F - 39.2 °F 100% 29.99 in 2.0 mi Calm Calm - 0.20 in Rain Heavy Rain
7:28 AM 39.2 °F 37.0 °F 39.2 °F 100% 29.98 in 3.0 mi Variable 3.5 mph - 0.23 in Rain Rain
7:51 AM 39.2 °F 35.9 °F 39.2 °F 100% 29.98 in 6.0 mi ENE 4.6 mph - 0.25 in Rain Rain
7:53 AM 39.9 °F - 39.0 °F 97% 29.99 in 5.0 mi Calm Calm - 0.25 in Rain Rain
7:59 AM 39.2 °F 33.0 °F 39.2 °F 100% 30.04 in 1.8 mi WNW 9.2 mph - 0.05 in Rain Heavy Rain
8:02 AM 41.0 °F 38.0 °F 39.2 °F 93% 30.02 in 0.8 mi Variable 4.6 mph - 0.14 in Rain Heavy Rain
8:12 AM 39.2 °F 35.0 °F 39.2 °F 100% 29.98 in 1.2 mi Variable 5.8 mph - 0.21 in Rain Light Rain
8:15 AM 39.2 °F - 39.2 °F 100% 29.99 in 3.0 mi Calm Calm - 0.21 in Rain Light Rain
8:37 AM 41.0 °F - 39.2 °F 93% 29.99 in 10.0 mi Calm Calm - 0.21 in   Overcast
8:53 AM 41.0 °F - 39.0 °F 93% 29.99 in 4.0 mi Calm Calm - 0.22 in Rain Light Rain
9:53 AM 42.1 °F 39.2 °F 39.9 °F 92% 29.96 in 10.0 mi NE 4.6 mph - 0.00 in   Overcast
10:44 AM 42.8 °F - 41.0 °F 93% 29.99 in 1.8 mi Calm Calm - 0.01 in Rain Light Rain
10:53 AM 43.0 °F - 41.0 °F 93% 29.98 in 1.2 mi Calm Calm - 0.01 in Rain Light Rain
11:09 AM 42.8 °F 41.1 °F 41.0 °F 93% 29.96 in 3.0 mi ENE 3.5 mph - 0.00 in   Overcast
11:53 AM 44.1 °F - 42.1 °F 93% 29.96 in 2.0 mi Calm Calm - 0.00 in   Overcast
11:55 AM 44.6 °F - 42.8 °F 93% 29.96 in 1.8 mi Calm Calm - N/A   Overcast
12:53 PM 44.1 °F - 42.1 °F 93% 29.97 in 1.2 mi Calm Calm - N/A   Overcast
1:24 PM 44.6 °F 43.1 °F 42.8 °F 93% 29.95 in 2.0 mi Variable 3.5 mph - 0.01 in   Overcast
1:39 PM 44.6 °F - 42.8 °F 93% 29.94 in 1.5 mi Calm Calm - 0.01 in   Overcast
1:53 PM 44.1 °F - 43.0 °F 96% 29.94 in 1.8 mi Calm Calm - 0.01 in Rain Light Rain
2:18 PM 44.6 °F - 42.8 °F 93% 29.91 in 2.0 mi Calm Calm - 0.01 in   Overcast
2:36 PM 44.6 °F - 42.8 °F 93% 29.91 in 3.0 mi Calm Calm - 0.01 in   Overcast
2:53 PM 45.0 °F - 44.1 °F 97% 29.91 in 5.0 mi Calm Calm - 0.01 in   Overcast
3:53 PM 46.0 °F - 45.0 °F 96% 29.91 in 10.0 mi Calm Calm - N/A   Overcast
4:12 PM 46.4 °F - 44.6 °F 93% 29.88 in 10.0 mi Calm Calm - N/A   Overcast
4:53 PM 46.9 °F - 45.0 °F 93% 29.88 in 10.0 mi Calm Calm - N/A   Overcast
5:53 PM 46.0 °F - 45.0 °F 96% 29.89 in 10.0 mi Calm Calm - N/A   Overcast
6:53 PM 46.0 °F - 44.1 °F 93% 29.91 in 10.0 mi Calm Calm - N/A   Overcast
7:45 PM 46.4 °F - 44.6 °F 93% 29.91 in 2.5 mi Calm Calm - N/A   Overcast
7:53 PM 46.0 °F - 45.0 °F 96% 29.91 in 3.0 mi Calm Calm - N/A   Overcast
8:01 PM 46.4 °F - 44.6 °F 93% 29.91 in 2.0 mi Calm Calm - N/A   Overcast
8:12 PM 46.4 °F 44.3 °F 44.6 °F 93% 29.90 in 1.8 mi Variable 4.6 mph - N/A   Overcast
8:24 PM 46.4 °F 45.2 °F 44.6 °F 93% 29.91 in 2.5 mi South 3.5 mph - N/A   Overcast
8:53 PM 46.0 °F - 46.0 °F 100% 29.91 in 1.8 mi Calm Calm - N/A   Overcast
9:04 PM 46.4 °F 45.2 °F 44.6 °F 93% 29.92 in 2.5 mi Variable 3.5 mph - N/A   Overcast
9:23 PM 46.4 °F 44.3 °F 44.6 °F 93% 29.93 in 1.2 mi SSW 4.6 mph - N/A   Overcast
9:34 PM 46.4 °F - 44.6 °F 93% 29.91 in 1.0 mi Calm Calm - N/A   Overcast
9:46 PM 46.4 °F 44.3 °F 44.6 °F 93% 29.85 in 0.8 mi Variable 4.6 mph - N/A   Mist
9:53 PM 46.0 °F 44.8 °F 45.0 °F 96% 29.86 in 1.0 mi Variable 3.5 mph - N/A   Mist
10:01 PM 46.4 °F 45.2 °F 44.6 °F 93% 29.88 in 1.8 mi SSW 3.5 mph - N/A   Overcast
10:10 PM 46.4 °F - 44.6 °F 93% 29.86 in 2.0 mi Calm Calm - N/A   Overcast
10:24 PM 46.4 °F - 44.6 °F 93% 29.89 in 4.0 mi Calm Calm - N/A   Overcast
10:53 PM 46.0 °F - 45.0 °F 96% 29.88 in 4.0 mi Calm Calm - N/A   Overcast
11:53 PM 46.0 °F - 45.0 °F 96% 29.88 in 4.0 mi Calm Calm - N/A   Overcast